Total_Precipitation_Accumulation
1.70 1.72 1.69 1.76 1.91 1.93 1.88 1.90 1.95 1.95 1.93 2.01 2.12 2.25 2.29 2.27 2.26 2.26 2.18 2.11 2.09 2.05 2.00 1.96 1.91 1.87 1.90 1.86 1.86 1.94 2.02 2.09 2.04 1.52 1.27 1.27 1.41 1.46 1.49 1.39 1.33 1.37 1.39
1.56 1.67 1.60 1.57 1.75 1.86 1.79 1.75 1.79 1.83 1.74 1.73 1.79 1.87 1.95 1.97 1.97 2.00 1.98 1.93 1.90 1.89 1.85 1.86 1.82 1.79 1.79 1.78 1.83 1.85 1.89 1.93 1.97 1.75 1.42 1.33 1.36 1.36 1.36 1.36 1.30 1.26 1.24
1.45 1.51 1.50 1.49 1.54 1.63 1.69 1.66 1.66 1.73 1.72 1.62 1.58 1.63 1.66 1.69 1.72 1.71 1.71 1.72 1.70 1.67 1.70 1.72 1.72 1.79 1.84 1.78 1.75 1.72 1.69 1.69 1.76 1.78 1.54 1.32 1.28 1.27 1.32 1.32 1.27 1.23 1.16
1.32 1.33 1.33 1.37 1.37 1.38 1.43 1.47 1.46 1.48 1.56 1.60 1.48 1.41 1.45 1.50 1.57 1.63 1.62 1.62 1.62 1.64 1.64 1.65 1.65 1.68 1.70 1.70 1.75 1.73 1.68 1.69 1.70 1.75 1.67 1.51 1.42 1.36 1.40 1.44 1.41 1.30 1.25
1.28 1.30 1.29 1.29 1.28 1.27 1.27 1.23 1.24 1.29 1.37 1.46 1.47 1.39 1.32 1.35 1.44 1.52 1.58 1.61 1.60 1.62 1.63 1.62 1.64 1.75 1.80 1.77 1.74 1.72 1.78 1.90 1.91 1.93 1.81 1.62 1.47 1.42 1.39 1.30 1.35 1.35 1.35
1.16 1.23 1.24 1.23 1.24 1.24 1.21 1.18 1.13 1.17 1.26 1.36 1.43 1.46 1.42 1.42 1.67 1.68 1.60 1.61 1.63 1.61 1.59 1.53 1.53 1.61 1.61 1.68 1.71 1.69 1.80 1.97 2.09 2.08 1.88 1.58 1.32 1.21 1.18 1.25 1.39 1.51 1.48
0.98 1.06 1.11 1.12 1.15 1.18 1.18 1.20 1.24 1.25 1.29 1.38 1.46 1.52 1.53 1.59 1.75 1.67 1.67 1.55 1.54 1.54 1.51 1.47 1.43 1.39 1.44 1.33 1.44 1.53 1.56 1.69 1.79 1.73 1.64 1.36 1.20 1.17 1.34 1.48 1.45 1.43 1.27
1.00 1.04 1.04 1.08 1.13 1.17 1.25 1.33 1.41 1.47 1.48 1.54 1.60 1.62 1.63 1.66 1.72 1.63 1.66 1.47 1.39 1.37 1.31 1.24 1.21 1.18 1.20 1.27 1.33 1.42 1.33 1.28 1.30 1.28 1.26 1.18 1.15 1.23 1.47 1.71 1.74 1.71 1.45
1.04 1.09 1.10 1.16 1.26 1.32 1.42 1.50 1.53 1.61 1.59 1.55 1.53 1.53 1.50 1.49 1.53 1.49 1.49 1.33 1.26 1.20 1.14 1.10 1.10 1.06 1.22 1.40 1.40 1.42 1.24 1.11 1.18 1.29 1.37 1.40 1.51 1.58 1.67 1.96 2.14 2.22 1.98
1.14 1.23 1.24 1.26 1.33 1.38 1.41 1.41 1.40 1.40 1.37 1.31 1.27 1.22 1.19 1.17 1.24 1.26 1.29 1.24 1.21 1.09 1.02 1.01 1.13 1.13 1.30 1.45 1.37 1.37 1.31 1.10 1.07 1.15 1.22 1.27 1.28 1.38 1.58 1.63 1.83 2.17 2.01
1.26 1.33 1.32 1.27 1.27 1.26 1.23 1.17 1.12 1.10 1.06 1.03 1.00 0.96 0.91 0.90 0.97 1.04 1.14 1.18 1.25 1.19 1.06 0.97 0.96 1.18 1.34 1.45 1.40 1.30 1.31 1.31 1.28 1.28 1.24 1.21 1.23 1.28 1.33 1.33 1.46 1.90 2.17
1.18 1.17 1.12 1.04 1.01 0.97 0.95 0.98 0.97 0.94 0.97 0.97 0.94 0.91 0.85 0.81 0.86 0.92 1.02 1.14 1.22 1.22 1.13 0.97 0.96 1.18 1.26 1.31 1.31 1.34 1.44 1.46 1.37 1.42 1.42 1.34 1.26 1.21 1.18 1.20 1.27 1.39 1.55
0.92 0.93 0.92 0.88 0.86 0.87 0.86 0.89 0.95 0.93 0.93 0.93 0.91 0.94 0.91 0.84 0.88 0.98 1.03 1.14 1.23 1.20 1.13 1.15 1.20 1.24 1.22 1.16 1.20 1.31 1.35 1.30 1.33 1.39 1.35 1.25 1.18 1.16 1.19 1.27 1.33 1.38 1.42
0.81 0.86 0.87 0.88 0.86 0.87 0.89 0.87 0.91 0.95 0.96 0.93 0.91 0.93 0.91 0.87 0.87 0.94 1.06 1.14 1.22 1.25 1.23 1.21 1.20 1.18 1.19 1.16 1.13 1.15 1.17 1.23 1.34 1.35 1.28 1.23 1.24 1.31 1.38 1.39 1.46 1.48 1.60
0.83 0.88 0.92 0.93 0.90 0.89 0.91 0.93 0.95 0.98 1.04 1.14 1.11 1.04 1.06 1.04 0.97 1.13 1.25 1.25 1.29 1.34 1.38 1.27 1.14 1.10 1.14 1.13 1.09 1.07 1.11 1.21 1.33 1.31 1.35 1.39 1.38 1.40 1.41 1.41 1.54 1.59 1.64
0.86 0.88 0.91 0.94 0.94 0.92 0.88 0.94 1.00 1.01 1.03 1.05 1.06 1.08 1.05 1.08 1.12 1.20 1.25 1.28 1.36 1.46 1.53 1.34 1.11 1.02 1.03 1.02 1.03 1.06 1.09 1.16 1.24 1.34 1.43 1.47 1.50 1.49 1.46 1.41 1.50 1.64 1.63
0.90 0.92 0.93 0.93 0.94 0.94 0.89 0.87 0.95 1.01 1.04 1.03 1.02 1.03 1.05 1.11 1.16 1.17 1.22 1.29 1.36 1.46 1.48 1.22 1.03 0.97 0.96 0.99 1.03 1.06 1.08 1.08 1.20 1.38 1.50 1.55 1.61 1.60 1.56 1.53 1.50 1.55 1.52
0.84 0.90 0.93 0.93 0.96 0.98 0.98 0.93 0.89 0.90 0.94 0.96 0.97 1.03 1.06 1.10 1.13 1.15 1.20 1.29 1.34 1.31 1.20 1.10 1.05 1.02 1.03 1.07 1.10 1.13 1.15 1.18 1.26 1.35 1.45 1.55 1.69 1.76 1.70 1.58 1.52 1.53 1.55
0.80 0.88 0.93 0.94 0.97 1.01 1.03 1.03 0.99 0.93 0.90 0.90 0.91 0.98 1.05 1.10 1.13 1.15 1.16 1.15 1.10 1.07 1.02 1.02 1.04 1.08 1.13 1.15 1.17 1.20 1.25 1.30 1.31 1.38 1.42 1.50 1.65 1.82 1.74 1.56 1.56 1.57 1.65
0.77 0.92 0.98 0.99 1.00 1.02 1.02 1.03 1.02 0.98 0.94 0.89 0.88 0.96 1.06 1.15 1.11 1.07 1.07 1.03 0.98 0.94 0.94 1.02 1.07 1.15 1.23 1.28 1.30 1.30 1.32 1.30 1.33 1.42 1.43 1.46 1.54 1.72 1.76 1.66 1.65 1.68 1.61
0.72 0.81 0.91 0.90 0.92 0.98 1.03 1.05 1.06 1.05 1.00 0.93 0.91 1.00 1.21 1.26 1.12 1.01 1.02 1.06 1.08 1.06 1.04 1.07 1.09 1.16 1.24 1.31 1.35 1.35 1.33 1.27 1.28 1.42 1.50 1.51 1.57 1.64 1.60 1.67 1.69 1.70 1.71
0.66 0.72 0.78 0.84 0.88 0.96 1.05 1.06 1.05 1.05 1.00 0.95 0.93 0.98 1.09 1.06 0.99 0.97 0.99 1.04 1.06 1.10 1.13 1.21 1.19 1.13 1.24 1.41 1.51 1.54 1.40 1.24 1.21 1.37 1.50 1.51 1.56 1.61 1.66 1.74 1.73 1.73 1.72
0.63 0.67 0.71 0.75 0.83 0.91 0.96 0.94 0.95 0.97 0.97 0.94 0.92 0.93 0.95 0.94 0.91 0.90 0.93 0.96 1.00 1.03 1.06 1.14 1.20 1.12 1.10 1.26 1.45 1.72 1.76 1.49 1.36 1.55 1.85 1.84 1.73 1.72 1.77 1.76 1.65 1.65 1.58
0.62 0.66 0.69 0.73 0.78 0.85 0.87 0.87 0.87 0.88 0.89 0.89 0.89 0.91 0.92 0.93 0.91 0.90 0.92 0.95 0.98 0.99 1.00 1.08 1.13 1.11 1.10 1.21 1.31 1.42 1.56 1.70 2.02 2.24 2.33 2.37 2.05 1.77 1.73 1.68 1.56 1.52 1.53
0.62 0.66 0.71 0.76 0.80 0.82 0.84 0.84 0.83 0.83 0.84 0.84 0.86 0.87 0.87 0.88 0.88 0.88 0.89 0.91 0.92 0.93 0.92 0.97 1.05 1.08 1.07 1.11 1.18 1.24 1.35 1.66 2.10 2.43 2.45 2.32 2.02 1.75 1.71 1.66 1.57 1.54 1.53
0.64 0.67 0.71 0.76 0.80 0.81 0.82 0.81 0.78 0.79 0.81 0.81 0.80 0.81 0.82 0.83 0.82 0.82 0.83 0.86 0.88 0.87 0.85 0.87 0.92 0.99 1.02 1.02 1.00 1.11 1.33 1.50 1.62 1.78 2.19 2.35 2.09 1.76 1.70 1.76 1.62 1.57 1.53